Home   Weather   Kailua-Kona   Past weeks
Flag for USA

Past Weather in Kailua-Kona, Hawaii, USA — Yesterday and Last 2 Weeks

Now
84 °F

Scattered clouds.


Feels Like: 90 °F
Forecast: 79 / 71 °F
Wind: 8 mph from Southwest

Location: Keahole Airport

Current Time: Jul 16, 2019 at 6:50:47 pm

Latest Report: Jul 16, 2019 at 5:53 pm


Visibility: 10 mi

Pressure: 29.89 "Hg

Humidity: 67%

Dew Point: 72 °F

Location of Kailua-KonaLocation

Past Weather in Kailua-Kona — Graph

°F

Kailua-Kona Temperature Yesterday

Maximum temperature yesterday: 87 °F (at 1:53 pm)
Minimum temperature yesterday: 75 °F (at 4:53 am)
Average temperature yesterday: 82 °F

High & Low Weather Summary for the Past Weeks

 TemperatureHumidityPressure
High88 °F (Jul 7, 2:53 pm)91% (Jul 4, 4:53 am)30.02 "Hg (Jul 4, 4:53 am)
Low75 °F (Jul 4, 5:53 am)53% (Jul 2, 8:53 am)29.88 "Hg (Jul 4, 3:53 pm)
Average81 °F71%29.95 "Hg
* Reported Jul 1 4:53 pm — Jul 16 4:53 pm, Kailua-Kona. Weather by CustomWeather, © 2019

Note: Actual official high and low records may vary slightly from our data, if they occured in-between our weather recording intervals... More about our weather records

Advertising

Kailua-Kona Weather History for the Previous 24 Hours

Scroll right to see more
 ConditionsComfort  
Time TempWeatherWind HumidityBarometerVisibility
4:53 pm
Tue, Jul 16
85 °FScattered clouds.8 mph65%29.88 "Hg10 mi
3:53 pm86 °FPassing clouds.10 mph61%29.90 "Hg10 mi
2:53 pm87 °FScattered clouds.12 mph59%29.91 "Hg10 mi
1:53 pm88 °FScattered clouds.10 mph57%29.93 "Hg10 mi
12:53 pm86 °FScattered clouds.10 mph57%29.93 "Hg10 mi
11:53 am86 °FScattered clouds.8 mph57%29.95 "Hg10 mi
10:53 am85 °FScattered clouds.8 mph59%29.95 "Hg10 mi
9:53 am84 °FPassing clouds.8 mph61%29.96 "Hg10 mi
8:53 am83 °FSunny.9 mph65%29.96 "Hg10 mi
7:53 am82 °FScattered clouds.3 mph63%29.96 "Hg10 mi
6:53 am80 °FScattered clouds.3 mph60%29.94 "Hg10 mi
5:53 am79 °FPassing clouds.7 mph60%29.92 "Hg10 mi
4:53 am80 °FClear.10 mph56%29.90 "Hg10 mi
3:53 am79 °FClear.15 mph54%29.89 "Hg10 mi
2:53 am80 °FClear.17 mph54%29.90 "Hg10 mi
1:53 am81 °FClear.20 mph53%29.90 "Hg10 mi
12:53 am81 °FClear.15 mph54%29.92 "Hg10 mi
11:53 pm
Mon, Jul 15
80 °FClear.18 mph56%29.93 "Hg10 mi
10:53 pm80 °FPassing clouds.18 mph58%29.94 "Hg10 mi
9:53 pm82 °FPassing clouds.16 mph56%29.94 "Hg10 mi
8:53 pm82 °FPassing clouds.7 mph74%29.94 "Hg10 mi
7:53 pm82 °FPartly cloudy.6 mph74%29.92 "Hg10 mi
6:53 pm84 °FBroken clouds.9 mph70%29.91 "Hg10 mi
Weather by CustomWeather, © 2019

See weather overview